TimeBST,TemperatureF,Dew PointF,Humidity,Sea Level PressureIn,VisibilityMPH,Wind Direction,Wind SpeedMPH,Gust SpeedMPH,PrecipitationIn,Events,Conditions,WindDirDegrees,DateUTC
12:20 AM,42.8,41.0,93,29.44,-9999.0,Calm,Calm,-,N/A,,Clear,0,2011-10-25 23:20:00
12:50 AM,42.8,41.0,93,29.44,-9999.0,Variable,2.3,-,N/A,,Clear,0,2011-10-25 23:50:00
1:20 AM,42.8,41.0,93,29.44,-9999.0,Calm,Calm,-,N/A,,Clear,0,2011-10-26 00:20:00
1:50 AM,42.8,41.0,93,29.44,6.2,Calm,Calm,-,N/A,Rain,Light Rain,0,2011-10-26 00:50:00
2:20 AM,42.8,42.8,100,29.44,6.2,Calm,Calm,-,N/A,Rain,Light Rain,0,2011-10-26 01:20:00
2:50 AM,44.6,42.8,93,29.44,6.2,ESE,2.3,-,N/A,Rain,Light Rain,110,2011-10-26 01:50:00
3:20 AM,44.6,42.8,93,29.44,4.3,Calm,Calm,-,N/A,Rain,Rain,0,2011-10-26 02:20:00
3:50 AM,46.4,44.6,93,29.44,6.2,NE,4.6,-,N/A,Rain,Light Rain,50,2011-10-26 02:50:00
4:20 AM,46.4,46.4,100,29.42,6.2,NNE,4.6,-,N/A,Rain,Light Rain,30,2011-10-26 03:20:00
4:50 AM,46.4,44.6,93,29.42,6.2,Calm,Calm,-,N/A,,Scattered Clouds,0,2011-10-26 03:50:00
5:20 AM,46.4,44.6,93,29.42,6.2,ENE,4.6,-,N/A,,Partly Cloudy,60,2011-10-26 04:20:00
5:50 AM,48.2,46.4,93,29.42,-9999.0,ENE,4.6,-,N/A,,Clear,60,2011-10-26 04:50:00
6:20 AM,44.6,42.8,93,29.42,-9999.0,ENE,5.8,-,N/A,,Clear,60,2011-10-26 05:20:00
6:50 AM,44.6,44.6,100,29.42,6.2,Variable,4.6,-,N/A,,Partly Cloudy,0,2011-10-26 05:50:00
7:20 AM,44.6,42.8,93,29.42,6.2,Variable,4.6,-,N/A,,Partly Cloudy,0,2011-10-26 06:20:00
7:50 AM,44.6,42.8,93,29.44,6.2,Variable,2.3,-,N/A,,Partly Cloudy,0,2011-10-26 06:50:00
8:20 AM,44.6,44.6,100,29.44,6.2,Variable,2.3,-,N/A,,Scattered Clouds,0,2011-10-26 07:20:00
8:50 AM,42.8,41.0,93,29.44,6.2,Variable,2.3,-,N/A,,Scattered Clouds,0,2011-10-26 07:50:00
9:20 AM,46.4,44.6,93,29.44,6.2,Variable,3.5,-,N/A,,Partly Cloudy,0,2011-10-26 08:20:00
9:50 AM,48.2,44.6,87,29.47,6.2,Calm,Calm,-,N/A,,Partly Cloudy,0,2011-10-26 08:50:00
10:20 AM,50.0,44.6,82,29.47,-9999.0,Calm,Calm,-,N/A,,Clear,0,2011-10-26 09:20:00
10:50 AM,51.8,44.6,76,29.44,-9999.0,Variable,2.3,-,N/A,,Clear,0,2011-10-26 09:50:00
11:20 AM,53.6,44.6,72,29.47,-9999.0,WSW,6.9,-,N/A,,Clear,240,2011-10-26 10:20:00
11:50 AM,53.6,42.8,67,29.47,-9999.0,SSW,9.2,-,N/A,,Clear,210,2011-10-26 10:50:00
12:20 PM,53.6,42.8,67,29.47,6.2,South,11.5,-,N/A,,Partly Cloudy,190,2011-10-26 11:20:00
12:50 PM,53.6,42.8,67,29.47,-9999.0,SSW,13.8,-,N/A,,Clear,210,2011-10-26 11:50:00
1:20 PM,53.6,42.8,67,29.47,6.2,SSW,11.5,-,N/A,,Partly Cloudy,210,2011-10-26 12:20:00
1:50 PM,53.6,41.0,62,29.50,6.2,SSW,13.8,-,N/A,,Partly Cloudy,200,2011-10-26 12:50:00
2:20 PM,53.6,41.0,62,29.50,-9999.0,SSW,12.7,-,N/A,,Clear,210,2011-10-26 13:20:00
2:50 PM,53.6,42.8,67,29.50,6.2,South,9.2,-,N/A,,Scattered Clouds,190,2011-10-26 13:50:00
3:20 PM,51.8,42.8,71,29.50,6.2,South,8.1,-,N/A,,Scattered Clouds,180,2011-10-26 14:20:00
3:50 PM,50.0,41.0,71,29.50,6.2,SSW,12.7,-,N/A,Rain,Light Rain Showers,210,2011-10-26 14:50:00
4:20 PM,50.0,42.8,76,29.50,-9999.0,South,5.8,-,N/A,,Clear,180,2011-10-26 15:20:00
4:50 PM,50.0,42.8,76,29.50,6.2,South,6.9,-,N/A,,Partly Cloudy,180,2011-10-26 15:50:00
5:20 PM,50.0,42.8,76,29.50,6.2,South,8.1,-,N/A,,Partly Cloudy,180,2011-10-26 16:20:00
5:50 PM,50.0,41.0,71,29.53,4.3,South,10.4,-,N/A,,Mostly Cloudy,190,2011-10-26 16:50:00
6:20 PM,48.2,42.8,82,29.53,6.2,SSE,9.2,-,N/A,,Mostly Cloudy,150,2011-10-26 17:20:00
6:50 PM,46.4,42.8,87,29.53,6.2,South,4.6,-,N/A,,Partly Cloudy,170,2011-10-26 17:50:00
7:20 PM,48.2,42.8,82,29.53,-9999.0,Variable,2.3,-,N/A,,Clear,0,2011-10-26 18:20:00
7:50 PM,46.4,42.8,87,29.53,-9999.0,East,4.6,-,N/A,,Clear,100,2011-10-26 18:50:00
8:20 PM,48.2,42.8,82,29.53,-9999.0,Variable,2.3,-,N/A,,Clear,0,2011-10-26 19:20:00
8:50 PM,48.2,41.0,76,29.56,-9999.0,SSE,9.2,-,N/A,,Clear,160,2011-10-26 19:50:00
9:20 PM,48.2,41.0,76,29.56,-9999.0,South,9.2,-,N/A,,Clear,170,2011-10-26 20:20:00
9:50 PM,48.2,41.0,76,29.56,-9999.0,South,6.9,-,N/A,,Clear,170,2011-10-26 20:50:00
10:20 PM,48.2,41.0,76,29.56,-9999.0,South,9.2,-,N/A,,Clear,190,2011-10-26 21:20:00
10:50 PM,48.2,41.0,76,29.56,-9999.0,SSE,6.9,-,N/A,,Clear,160,2011-10-26 21:50:00
11:20 PM,46.4,41.0,81,29.56,-9999.0,South,9.2,-,N/A,,Clear,170,2011-10-26 22:20:00
11:50 PM,46.4,41.0,81,29.56,-9999.0,South,5.8,-,N/A,,Clear,190,2011-10-26 22:50:00